Weather History for KP58 - July, 2013

Change the Weather History Date:

Friday, July 26, 2013

  Actual Average Record
Temperature  
Mean Temperature 69 °F -  
Max Temperature 78 °F 76 °F 89 °F (2000)
Min Temperature 61 °F 61 °F 53 °F (2004)
Cooling Degree Days 4    
Growing Degree Days 19 (Base 50)    
Moisture  
Dew Point 56 °F    
Average Humidity 65    
Maximum Humidity 93    
Minimum Humidity 46    
Precipitation  
Precipitation 0.08 in - - ()
Sea Level Pressure  
Sea Level Pressure 29.99 in    
Wind  
Wind Speed 4 mph (South)    
Max Wind Speed 12 mph    
Max Gust Speed 20 mph    
Averages and records for this station are not official NWS values.
T = Trace of Precipitation, MM = Missing Value Source: NWS Daily Summary

Daily Weather History Graph

Daily Weather History Graph

Search for Another Location

Airport or City:

Trip Planner

Search our weather history database for the weather conditions in past years. The results will help you decide how hot, cold, wet, or windy it might be!

Date:

Astronomy

Jul. 26, 2013 Rise Set
Actual Time 6:13 AM EDT 9:01 PM EDT
Civil Twilight 5:39 AM EDT 9:35 PM EDT
Nautical Twilight 4:56 AM EDT 10:17 PM EDT
Astronomical Twilight 4:07 AM EDT 11:06 PM EDT
Moon 11:01 PM EDT (7/26) 11:00 AM EDT (7/26)
Length of Visible Light 15h 55m
Length of Day
14h 48m
Waning Gibbous, 80% of the Moon is Illuminated
Jul 26
Waning Gibbous
Jul 29
Last Quarter
Aug 6
New
Aug 14
First Quarter
Aug 20
Full

Hourly Weather History & Observations

Time (EDT) Temp. Dew Point Humidity Pressure Visibility Wind Dir Wind Speed Gust Speed Precip Events Conditions
12:51 AM 63.0 °F 54.0 °F 72% 30.07 in - Calm Calm - N/A   Unknown
1:51 AM 64.0 °F 53.1 °F 67% 30.05 in - South 3.5 mph - N/A   Unknown
2:51 AM 63.0 °F 54.0 °F 72% 30.04 in - Variable 4.6 mph - N/A   Unknown
3:51 AM 63.0 °F 54.0 °F 72% 30.04 in - Variable 3.5 mph - N/A   Unknown
4:51 AM 62.1 °F 54.0 °F 75% 30.04 in - Variable 4.6 mph - N/A   Unknown
5:51 AM 62.1 °F 54.0 °F 75% 30.03 in - Variable 3.5 mph - N/A   Unknown
6:51 AM 61.0 °F 54.0 °F 78% 30.05 in - Variable 3.5 mph - N/A   Unknown
7:51 AM 64.9 °F 55.0 °F 70% 30.04 in - SSW 3.5 mph - N/A   Unknown
8:51 AM 68.0 °F 55.9 °F 65% 30.04 in - Variable 4.6 mph - N/A   Unknown
9:51 AM 71.1 °F 57.0 °F 61% 30.04 in - Variable 5.8 mph - N/A   Unknown
10:51 AM 72.0 °F 55.0 °F 55% 30.03 in - Variable 5.8 mph - N/A   Unknown
11:51 AM 75.0 °F 55.0 °F 50% 30.02 in - Variable 5.8 mph - N/A   Unknown
12:51 PM 75.9 °F 55.9 °F 50% 30.01 in - Variable 4.6 mph - N/A   Unknown
1:51 PM 77.0 °F 57.0 °F 50% 29.99 in - SSE 6.9 mph - N/A   Unknown
2:51 PM 77.0 °F 55.9 °F 48% 29.98 in - Variable 6.9 mph - N/A   Unknown
3:51 PM 77.0 °F 57.0 °F 50% 29.95 in - Variable 5.8 mph - N/A   Unknown
4:51 PM 77.0 °F 60.1 °F 56% 29.94 in - SE 11.5 mph 19.6 mph N/A   Unknown
5:51 PM 77.0 °F 57.0 °F 50% 29.92 in - Variable 6.9 mph - N/A   Unknown
6:51 PM 75.0 °F 53.1 °F 46% 29.92 in - Variable 5.8 mph - N/A   Unknown
7:51 PM 73.0 °F 55.0 °F 53% 29.91 in - Variable 3.5 mph - N/A   Unknown
8:51 PM 71.1 °F 59.0 °F 66% 29.90 in - Variable 4.6 mph - N/A   Unknown
9:51 PM 66.9 °F 62.1 °F 84% 29.92 in - Calm Calm - 0.01 in   Unknown
10:51 PM 66.0 °F 63.0 °F 90% 29.91 in - Calm Calm - 0.06 in   Unknown
11:51 PM 64.9 °F 63.0 °F 93% 29.88 in - Calm Calm - 0.01 in   Unknown